EW4347 Weather Reports


time (UTC)temp
F
wind
direction
speed
knots
gust
knots
rain 1hr
in
rain 24hr
in
rain mn
in
humidity
%
barometer
mb
20260505012252 46 33 0.0 0.9 0.00 0.00 0.00 88 1006.8
20260505011709 46 32 0.0 2.6 0.00 0.00 0.00 87 1006.6
20260505011501 46 33 0.0 2.6 0.00 0.00 0.00 87 1006.6
20260505011209 47 32 1.7 2.6 0.00 0.00 0.00 88 1006.5
20260505010709 47 60 0.0 0.9 0.00 0.00 0.00 87 1006.4
20260505010208 47 60 0.0 1.7 0.00 0.00 0.00 87 1006.3
20260505005708 47 60 0.0 2.6 0.00 0.00 0.00 85 1006.3
20260505005208 48 60 0.9 2.6 0.00 0.00 0.00 84 1006.3
20260505004707 48 96 0.9 2.6 0.00 0.00 0.00 84 1006.2
20260505004146 48 99 0.9 1.7 0.00 0.00 0.00 84 1006.1
20260505003646 49 100 0.0 1.7 0.00 0.00 0.00 85 1006.0
20260505003124 49 100 0.0 0.9 0.00 0.00 0.00 82 1005.9
20260505002624 49 100 0.0 0.9 0.00 0.00 0.00 82 1005.7
20260505002124 50 100 0.0 1.7 0.00 0.00 0.00 82 1005.7
20260505001623 50 100 0.9 1.7 0.00 0.00 0.00 81 1005.7
20260505001123 50 102 0.0 0.9 0.00 0.00 0.00 80 1005.6
20260505000623 50 102 0.0 0.9 0.00 0.00 0.00 80 1005.6
20260505000122 50 102 0.0 0.9 0.00 0.00 0.00 82 1005.5
20260504235540 51 102 0.0 0.0 0.00 0.00 0.00 80 1005.6
20260504235040 51 102 0.0 0.9 0.00 0.00 0.00 79 1005.6
20260504234539 52 102 0.0 0.9 0.00 0.00 0.00 78 1005.5
20260504234039 53 102 0.0 0.9 0.00 0.00 0.00 76 1005.4
20260504233539 53 102 0.0 0.0 0.00 0.00 0.00 77 1005.3
20260504233039 54 102 0.0 0.0 0.00 0.00 0.00 75 1005.3
20260504232538 55 103 0.0 0.0 0.00 0.00 0.00 73 1005.3
20260504232038 55 103 0.0 0.9 0.00 0.00 0.00 71 1005.2
20260504231538 56 103 0.0 1.7 0.00 0.00 0.00 68 1005.1
20260504231037 57 103 0.0 1.7 0.00 0.00 0.00 66 1005.1
20260504230537 58 102 0.0 2.6 0.00 0.00 0.00 65 1005.1
20260504230037 59 102 0.9 2.6 0.00 0.00 0.00 62 1005.0
20260504225537 59 103 0.9 2.6 0.00 0.00 0.00 60 1005.0
20260504225036 59 104 0.9 2.6 0.00 0.00 0.00 59 1005.0
20260504224536 58 112 0.0 3.5 0.00 0.00 0.00 60 1005.0
20260504224035 59 113 0.9 3.5 0.00 0.00 0.00 62 1004.9
20260504223535 59 122 0.9 3.5 0.00 0.00 0.00 58 1004.9
20260504223035 59 168 0.9 6.1 0.00 0.00 0.00 56 1004.9
20260504222535 60 119 0.9 6.1 0.00 0.00 0.00 55 1004.9
20260504222034 59 165 1.7 6.1 0.00 0.00 0.00 56 1004.8
20260504221650 59 162 0.0 8.7 0.00 0.00 0.00 56 1004.9
20260504221534 59 136 1.7 8.7 0.00 0.00 0.00 55 1004.8
20260504221034 59 119 2.6 8.7 0.00 0.00 0.00 56 1004.8
20260504220534 60 123 2.6 7.8 0.00 0.00 0.00 55 1004.8
20260504220137 60 104 2.6 10.4 0.00 0.00 0.00 55 1004.9
20260504220033 60 133 2.6 10.4 0.00 0.00 0.00 56 1004.8
20260504215533 60 143 4.3 7.8 0.00 0.00 0.00 56 1004.8
20260504214951 60 145 3.5 9.6 0.00 0.00 0.00 55 1004.8
20260504214617 60 104 4.3 9.6 0.00 0.00 0.00 55 1004.8
20260504214450 60 122 3.5 8.7 0.00 0.00 0.00 56 1004.8
20260504213950 60 162 2.6 9.6 0.00 0.00 0.00 56 1004.8
20260504213407 60 103 4.3 10.4 0.00 0.00 0.00 56 1005.0
20260504213113 60 137 0.0 7.8 0.00 0.00 0.00 60 1004.9
20260504212846 59 139 4.3 7.8 0.00 0.00 0.00 58 1004.9
20260504212324 59 158 2.6 7.8 0.00 0.00 0.00 58 1004.8
20260504211824 59 137 4.3 7.8 0.00 0.00 0.00 58 1004.7
20260504211540 59 103 1.7 7.0 0.00 0.00 0.00 58 1004.6
20260504211303 59 116 4.3 8.7 0.00 0.00 0.00 59 1004.5
20260504210802 59 104 4.3 8.7 0.00 0.00 0.00 59 1004.7
20260504210241 59 162 3.5 10.4 0.00 0.00 0.00 59 1004.6
20260504210027 59 195 4.3 13.0 0.00 0.00 0.00 59 1004.6
20260504205741 59 140 3.5 13.0 0.00 0.00 0.00 59 1004.6
20260504205240 59 140 3.5 12.2 0.00 0.00 0.00 60 1004.6
20260504204740 59 136 5.2 12.2 0.00 0.00 0.00 59 1004.7
20260504204505 59 130 3.5 12.2 0.00 0.00 0.00 60 1004.6
20260504204240 59 98 4.3 12.2 0.00 0.00 0.00 58 1004.6
20260504203740 58 100 4.3 11.3 0.00 0.00 0.00 59 1004.6
20260504203240 58 119 4.3 11.3 0.00 0.00 0.00 60 1004.6
20260504202739 58 103 6.1 12.2 0.00 0.00 0.00 59 1004.7
20260504202239 58 184 6.1 10.4 0.00 0.00 0.00 59 1004.6
20260504201718 58 147 4.3 13.0 0.00 0.00 0.00 60 1004.6
20260504201218 58 114 7.0 13.0 0.00 0.00 0.00 59 1004.7
20260504200717 58 108 3.5 15.6 0.00 0.00 0.00 60 1004.6
20260504200217 58 73 7.8 15.6 0.00 0.00 0.00 59 1004.5
20260504195717 58 154 6.1 15.6 0.00 0.00 0.00 59 1004.4
20260504195216 58 81 8.7 15.6 0.00 0.00 0.00 58 1004.4
20260504194716 59 95 6.1 13.9 0.00 0.00 0.00 59 1004.4
20260504194216 59 147 3.5 13.0 0.00 0.00 0.00 60 1004.4
20260504193655 58 108 4.3 14.8 0.00 0.00 0.00 60 1004.3
20260504193154 59 107 7.0 14.8 0.00 0.00 0.00 59 1004.4
20260504192654 59 68 8.7 14.8 0.00 0.00 0.00 58 1004.5
20260504192154 59 141 6.1 16.5 0.00 0.00 0.00 61 1004.4
20260504191653 58 71 7.8 16.5 0.00 0.00 0.00 61 1004.4
20260504191153 58 83 7.0 15.6 0.00 0.00 0.00 61 1004.3
20260504190653 58 62 7.0 15.6 0.00 0.00 0.00 61 1004.4
20260504190153 58 151 3.5 13.9 0.00 0.00 0.00 61 1004.4
20260504185631 59 52 7.8 13.9 0.00 0.02 0.00 60 1004.4
20260504185131 59 62 5.2 14.8 0.00 0.02 0.00 63 1004.5
20260504184548 59 87 8.7 14.8 0.00 0.02 0.00 62 1004.5
20260504184048 57 54 7.0 12.2 0.00 0.02 0.00 68 1004.5
20260504183548 56 23 5.2 13.9 0.00 0.02 0.00 68 1004.6
20260504183048 55 112 7.8 15.6 0.00 0.02 0.00 68 1004.7
20260504182526 55 78 7.0 20.0 0.00 0.02 0.00 68 1004.8
20260504182026 55 37 5.2 13.9 0.00 0.02 0.00 69 1004.8
20260504181525 55 91 7.8 13.9 0.00 0.02 0.00 68 1004.8
20260504181025 55 75 4.3 14.8 0.00 0.02 0.00 68 1004.9
20260504180525 55 67 7.0 14.8 0.00 0.02 0.00 69 1005.0
20260504180201 55 31 5.2 13.0 0.00 0.02 0.00 68 1005.1
20260504180025 55 56 3.5 13.0 0.00 0.02 0.00 69 1005.0
20260504175524 54 51 6.1 13.0 0.00 0.04 0.00 68 1005.1
20260504175024 54 58 4.3 13.0 0.00 0.04 0.00 71 1005.1
20260504174646 54 11 4.3 13.0 0.00 0.04 0.00 70 1005.1
20260504174523 54 54 3.5 8.7 0.00 0.04 0.00 70 1005.1
20260504174023 54 69 4.3 11.3 0.00 0.04 0.00 70 1005.2
20260504173523 53 43 5.2 11.3 0.00 0.04 0.00 69 1005.3
20260504173130 54 92 5.2 10.4 0.00 0.04 0.00 68 1005.4
20260504173022 54 86 5.2 10.4 0.00 0.04 0.00 68 1005.4
20260504172522 54 82 5.2 9.6 0.00 0.04 0.00 67 1005.3
20260504172022 54 66 2.6 13.0 0.00 0.04 0.00 68 1005.2
20260504171615 53 54 5.2 13.0 0.00 0.04 0.00 68 1005.3
20260504171522 54 104 4.3 13.0 0.00 0.04 0.00 67 1005.2
20260504171021 54 115 6.1 12.2 0.00 0.04 0.00 67 1005.2
20260504170521 53 98 3.5 10.4 0.00 0.04 0.00 68 1005.2
20260504150932 54 54 6.1 10.4 0.00 0.10 0.00 56 1005.1
20260504150431 54 83 6.1 11.3 0.00 0.10 0.00 53 1005.1
20260504140928 53 61 0.9 9.6 0.00 0.14 0.00 58 1006.1
20260504140427 52 27 5.2 10.4 0.00 0.14 0.00 59 1006.1
20260504130341 50 57 4.3 8.7 0.00 0.18 0.00 57 1006.6
20260504130116 50 43 5.2 8.7 0.00 0.18 0.00 58 1006.6
20260504120256 43 45 1.7 5.2 0.00 0.23 0.00 74 1007.0
20260504110710 38 23 1.7 5.2 0.00 0.29 0.00 80 1006.8
20260504110149 38 48 2.6 5.2 0.00 0.29 0.00 80 1006.9
20260504100124 30 357 0.9 3.5 0.00 0.34 0.00 95 1006.7
20260504081953 30 41 0.9 2.6 0.00 0.39 0.00 94 1006.2
20260504081550 30 41 0.0 1.7 0.00 0.39 0.00 94 1006.3
20260504081452 30 41 0.0 1.7 0.00 0.39 0.00 94 1006.2
20260504080931 30 41 0.9 1.7 0.00 0.39 0.00 94 1006.3
20260504080431 30 41 0.0 1.7 0.00 0.39 0.00 94 1006.3
20260504070345 31 48 0.9 2.6 0.00 0.40 0.00 90 1006.1
20260504060216 33 90 0.9 2.6 0.00 0.41 0.00 87 1005.8
20260504050528 34 117 0.9 4.3 0.00 0.41 0.00 86 1005.7
20260504045527 33 122 0.9 4.3 0.00 0.42 0.00 88 1005.8
20260504045027 34 124 0.9 2.6 0.00 0.42 0.00 88 1005.8
20260504044646 34 124 0.9 4.3 0.00 0.42 0.00 87 1005.9
20260504044526 34 125 0.9 4.3 0.00 0.42 0.00 87 1005.8
20260504044026 34 124 1.7 4.3 0.00 0.42 0.00 86 1005.8
20260504043526 34 129 0.0 2.6 0.00 0.42 0.00 88 1005.8
20260504043132 34 129 0.0 2.6 0.00 0.42 0.00 88 1005.9
20260504043026 34 129 0.0 2.6 0.00 0.42 0.00 87 1005.8
20260504042525 35 129 0.9 2.6 0.00 0.42 0.00 86 1005.8
20260504042025 35 130 0.0 2.6 0.00 0.42 0.00 86 1005.8
20260504041612 36 130 0.0 2.6 0.00 0.42 0.00 85 1005.8
20260504041525 36 131 0.0 2.6 0.00 0.42 0.00 84 1005.7
20260504041024 36 131 0.0 4.3 0.00 0.42 0.00 81 1005.7
20260504040442 37 131 0.9 4.3 0.00 0.42 0.00 79 1005.6
20260504040051 37 127 0.9 4.3 0.00 0.42 0.00 75 1005.6
20260504035942 37 127 1.7 4.3 0.00 0.42 0.42 75 1005.5
20260504035420 37 110 0.9 3.5 0.00 0.42 0.42 75 1005.5
20260504034920 37 104 0.9 3.5 0.00 0.42 0.42 73 1005.4
20260504034536 38 97 0.0 3.5 0.00 0.42 0.42 74 1005.4
20260504034419 38 97 0.0 3.5 0.00 0.42 0.42 73 1005.3
20260504033919 38 99 0.9 6.1 0.00 0.42 0.42 72 1005.3
20260504033419 38 79 1.7 6.1 0.00 0.42 0.42 72 1005.2
20260504033036 38 114 1.7 5.2 0.00 0.42 0.42 71 1005.2
20260504032919 38 129 1.7 5.2 0.00 0.42 0.42 71 1005.1
20260504032418 38 129 0.9 2.6 0.00 0.42 0.42 71 1005.2
20260504031918 38 130 0.9 4.3 0.00 0.42 0.42 72 1005.2
20260504031507 38 133 0.0 4.3 0.00 0.42 0.42 70 1005.2
20260504031417 39 133 0.9 4.3 0.00 0.42 0.42 70 1005.2
20260504030856 39 112 0.9 3.5 0.00 0.42 0.42 69 1005.1
20260504030356 39 146 1.7 5.2 0.00 0.42 0.42 68 1005.0
20260504025855 39 163 1.7 3.5 0.00 0.43 0.42 68 1005.0
20260504025355 40 145 0.9 6.1 0.00 0.43 0.42 68 1004.9
20260504024855 40 147 1.7 6.1 0.00 0.43 0.42 66 1004.9
20260504024333 40 110 1.7 7.0 0.00 0.43 0.42 65 1004.9
20260504023833 40 134 2.6 7.0 0.00 0.43 0.42 64 1004.9
20260504023332 40 149 2.6 7.8 0.00 0.43 0.42 65 1004.9
20260504022811 40 137 2.6 7.8 0.00 0.43 0.42 66 1004.9
20260504022310 40 127 2.6 7.0 0.00 0.43 0.42 67 1004.9
20260504021810 40 141 1.7 4.3 0.00 0.43 0.42 65 1004.9
20260504021249 40 167 1.7 7.0 0.00 0.43 0.42 65 1004.8
20260504020749 41 116 1.7 7.0 0.00 0.43 0.42 64 1004.8
20260504020248 41 117 2.6 6.1 0.00 0.43 0.42 63 1004.8
20260504015748 41 151 2.6 6.1 0.00 0.44 0.42 62 1004.7
20260504015247 41 139 1.7 8.7 0.00 0.44 0.42 62 1004.7
20260504014726 41 145 1.7 8.7 0.00 0.44 0.42 63 1004.6
20260504014226 41 119 2.6 7.8 0.00 0.44 0.42 62 1004.6
20260504013725 41 144 1.7 5.2 0.00 0.44 0.42 63 1004.6
20260504013225 42 168 1.7 6.1 0.00 0.44 0.42 62 1004.6
20260504012725 42 149 1.7 7.0 0.00 0.44 0.42 59 1004.6